Find Starlink 2728

NORAD ID: 48478 Int'l Des: 2021-040 Owner: SPXS Country: US Constellation: starlink operational
LEOCIRCULARSTARLINK_TYPE

現在のビュー

3D地球を読み込み中...

About Starlink 2728

Starlink 2728 (NORAD 48478) is a starlink constellation satellite (v1.0) launched May 9, 2021 by SPXS of US. It operates in LEO, CIRCULAR, STARLINK_TYPE orbit with a mass of 260.00 kg.

Starlink 2728について

説明を読み込み中...

次回通過

Passes for default location (London). Set your location on the main map for personalized predictions.

高度履歴

Loading altitude history...

軌道要素

1 48478U 21040BC 26194.58985640 .00008281 00000-0 27827-3 0 9993
2 48478 53.1605 325.3442 0001244 88.8913 271.2231 15.31706892285784
Epoch: Jul 13, 2026 • Age: 25 hours

現在のステータス

高度 474.1 km
遠地点 / 近地点 N/A
速度 7.63 km/s
衛星直下点 -11.88°S, 151.76°E
打ち上げ日 May 9, 2021
運用期間 5.1 years
タイプ internet

技術仕様

分類 Payload
質量 260.00 kg
乾燥質量 248.00 kg
総質量 260.00 kg
長さ 0.20 m
直径 2.80 m
スパン 9.00 m
形状 Box + pan
製造者 SPXS
バスタイプ Starlink
フェーズステータス In Orbit
所有者/国 SPXS/US

Most Searched